Regional Weather Roundup
Issued by NWS

Home | Current Version | Previous Version | Text Only | Print | Product List | Glossary On
Versions: 1 2 3 4 5 6 7 8 9 10 11 12 13 14 15 16 17 18 19 20 21 22 23 24 25 26 27 28 29 30 31 32 33 34 35 36 37 38 39 40 41 42 43 44 45 46 47 48 49 50
405
ASUS44 KJAN 180810
RWRMS

MISSISSIPPI HOURLY WEATHER ROUNDUP
NATIONAL WEATHER SERVICE JACKSON MS
200 AM CST THU DEC 18 2014

NOTE: "FAIR: INDICATES FEW OR NO CLOUDS BELOW 12,000 FEET WITH NO
SIGNIFICANT WEATHER AND/OR OBSTRUCTIONS TO VISIBILITY.

MSZ001>002-007>008-010>013-018>021-025>028-034>036-180900-
NORTHWEST MISSISSIPPI

CITY           SKY/WX    TMP DP  RH WIND       PRES   REMARKS
CLARKSDALE     CLOUDY    39  37  93 N9        30.28S WCI  33
CLEVELAND      CLOUDY    41  38  89 N9        30.27R
GREENWOOD      CLOUDY    44  37  76 N5        30.26R
GREENVILLE     LGT RAIN  42  38  85 N9        30.26R
GRENADA        CLOUDY    41  36  81 CALM      30.26R
OLIVE BRANCH   CLOUDY    36  36 100 NE6       30.28S WCI  31
OXFORD         CLOUDY    37  32  81 N5        30.28R WCI  34
TUNICA         LGT RAIN  37  34  87 N7        30.31R WCI  32
$$

MSZ003>006-009-014>017-022>024-029>033-037>039-180900-
NORTHEAST MISSISSIPPI

CITY           SKY/WX    TMP DP  RH WIND       PRES   REMARKS
COLUMBUS AFB   CLOUDY    40  36  85 N6        30.24F
CORINTH        CLOUDY    39  32  75 CALM      30.25S
GOLDN TRIANGLE MOCLDY    37  34  87 N5        30.23S WCI  34
STARKVILLE     PTSUNNY   37  36  93 CALM      30.23S
TUPELO         CLOUDY    41  33  73 NE7       30.25S
$$

MSZ040-058-180900-
CENTRAL MISSISSIPPI

CITY           SKY/WX    TMP DP  RH WIND       PRES   REMARKS
JACKSON INTL   CLOUDY    45  40  82 CALM      30.20F
JACKSON HAWKNS CLOUDY    46  39  76 E3        30.21S
MERIDIAN KEY   MOCLDY    38  36  92 CALM      30.23R
MERIDIAN NAS   PTCLDY    37  35  92 N3        30.23R
RAYMOND        FAIR      45  39  81 MISG      30.21R
VICKSBURG      CLOUDY    46  39  76 N6        30.22R
$$

MSZ059>079-180900-
SOUTH MISSISSIPPI

CITY           SKY/WX    TMP DP  RH WIND       PRES   REMARKS
HATTIESBURG    CLEAR     40  38  93 CALM      30.21R
MCCOMB         PTCLDY    44  40  85 CALM      30.18F
NATCHEZ        CLOUDY    46  41  81 CALM      30.20R
PINE BELT      CLEAR     37  34  87 N3        30.21S
$$

MSZ080>082-180900-
COASTAL MISSISSIPPI

CITY           SKY/WX    TMP DP  RH WIND       PRES   REMARKS
BILOXI         MOCLDY    46  42  85 NE3       30.18S
PASCAGOULA     MOCLDY    39  38  96 CALM      30.19S
GULFPORT       MOCLDY    44  41  89 CALM      30.18S
$$



USA.gov is the U.S. government's official web portal to all federal, state and local government web resources and services.